,,,PA_Meas_PMT16A,,PR_Meas_QMR101_102,,RH_Meas_QMH101,,SR_Meas_QMS101,,TA_Meas_QMH101,,GenWind,,GenWind,
date,time,status,PA,status,PR,status,RH,status,SR,status,TA,status,DirAvg,status,SpdAvg,
2012-06-02, 00:00:04,VALID,1003.05,VALID,0,VALID,94.0565,VALID,0,VALID,24.5193,VALID,6,VALID,0,
2012-06-02, 00:01:04,VALID,1003.02,VALID,0,VALID,94.0412,VALID,0,VALID,24.5212,VALID,6,VALID,0,
2012-06-02, 00:02:04,VALID,1003.01,VALID,0,VALID,93.9954,VALID,0,VALID,24.5017,VALID,6,VALID,0,
2012-06-02, 00:03:04,VALID,1003.04,VALID,0,VALID,93.9344,VALID,0,VALID,24.4822,VALID,6,VALID,0,
2012-06-02, 00:04:04,VALID,1003.05,VALID,0,VALID,93.9115,VALID,0,VALID,24.4628,VALID,6,VALID,0,
2012-06-02, 00:05:04,VALID,1003.05,VALID,0,VALID,93.9344,VALID,0,VALID,24.422,VALID,6,VALID,0,
2012-06-02, 00:06:04,VALID,1003,VALID,0,VALID,93.9191,VALID,0,VALID,24.4025,VALID,6,VALID,0,
2012-06-02, 00:07:04,VALID,1003.01,VALID,0,VALID,93.9039,VALID,0,VALID,24.383,VALID,6,VALID,0,
2012-06-02, 00:08:04,VALID,1002.97,VALID,0,VALID,93.9497,VALID,0,VALID,24.4043,VALID,6,VALID,0,
2012-06-02, 00:09:04,VALID,1002.96,VALID,0,VALID,94.087,VALID,0,VALID,24.4433,VALID,6,VALID,0,
2012-06-02, 00:10:04,VALID,1002.92,VALID,0,VALID,94.0717,VALID,0,VALID,24.422,VALID,6,VALID,0,
2012-06-02, 00:11:04,VALID,1002.9,VALID,0,VALID,94.0946,VALID,0,VALID,24.422,VALID,6,VALID,0,
2012-06-02, 00:12:04,VALID,1002.87,VALID,0,VALID,94.1404,VALID,0,VALID,24.4609,VALID,6,VALID,0,
2012-06-02, 00:13:04,VALID,1002.87,VALID,0,VALID,94.1404,VALID,0,VALID,24.4609,VALID,6,VALID,0,
2012-06-02, 00:14:04,VALID,1002.84,VALID,0,VALID,94.0794,VALID,0,VALID,24.4822,VALID,6,VALID,0,
2012-06-02, 00:15:04,VALID,1002.86,VALID,0,VALID,94.087,VALID,0,VALID,24.4609,VALID,6,VALID,0,
2012-06-02, 00:16:04,VALID,1002.83,VALID,0,VALID,94.1404,VALID,0,VALID,24.4609,VALID,6,VALID,0,
2012-06-02, 00:17:04,VALID,1002.83,VALID,0,VALID,94.2014,VALID,0,VALID,24.4998,VALID,6,VALID,0,
2012-06-02, 00:18:04,VALID,1002.86,VALID,0,VALID,94.1633,VALID,0,VALID,24.4998,VALID,6,VALID,0,
2012-06-02, 00:19:04,VALID,1002.8,VALID,0,VALID,94.0946,VALID,0,VALID,24.5212,VALID,6,VALID,0,
2012-06-02, 00:20:04,VALID,1002.79,VALID,0,VALID,94.0641,VALID,0,VALID,24.4822,VALID,6,VALID,0,
2012-06-02, 00:21:04,VALID,1002.79,VALID,0,VALID,94.0565,VALID,0.0815089,VALID,24.4804,VALID,6,VALID,0,
2012-06-02, 00:22:04,VALID,1002.75,VALID,0,VALID,94.1099,VALID,0.0815089,VALID,24.4609,VALID,6,VALID,0,
2012-06-02, 00:23:04,VALID,1002.78,VALID,0,VALID,94.1556,VALID,0,VALID,24.4804,VALID,6,VALID,0,
2012-06-02, 00:24:04,VALID,1002.76,VALID,0,VALID,94.1785,VALID,0,VALID,24.5193,VALID,6,VALID,0,
2012-06-02, 00:25:04,VALID,1002.77,VALID,0,VALID,94.1556,VALID,0.0815089,VALID,24.4804,VALID,6,VALID,0,
2012-06-02, 00:26:04,VALID,1002.78,VALID,0,VALID,94.148,VALID,0.0815089,VALID,24.4804,VALID,6,VALID,0,
2012-06-02, 00:27:04,VALID,1002.8,VALID,0,VALID,94.1404,VALID,0,VALID,24.4609,VALID,6,VALID,0,
2012-06-02, 00:28:04,VALID,1002.81,VALID,0,VALID,94.1022,VALID,0,VALID,24.4414,VALID,6,VALID,0,
2012-06-02, 00:29:04,VALID,1002.8,VALID,0,VALID,94.0641,VALID,0,VALID,24.4433,VALID,6,VALID,0,
2012-06-02, 00:30:04,VALID,1002.82,VALID,0,VALID,94.0412,VALID,0,VALID,24.4025,VALID,6,VALID,0,
2012-06-02, 00:31:04,VALID,1002.81,VALID,0,VALID,94.0794,VALID,0,VALID,24.4043,VALID,6,VALID,0,
2012-06-02, 00:32:04,VALID,1002.77,VALID,0,VALID,94.087,VALID,0,VALID,24.4043,VALID,6,VALID,0,
2012-06-02, 00:33:04,VALID,1002.8,VALID,0,VALID,94.1099,VALID,0,VALID,24.3617,VALID,6,VALID,0,
2012-06-02, 00:34:04,VALID,1002.8,VALID,0,VALID,94.1709,VALID,0,VALID,24.4025,VALID,6,VALID,0,
2012-06-02, 00:35:04,VALID,1002.8,VALID,0,VALID,94.2014,VALID,0,VALID,24.4238,VALID,6,VALID,0,
2012-06-02, 00:36:04,VALID,1002.82,VALID,0,VALID,94.1556,VALID,0,VALID,24.4043,VALID,6,VALID,0,
2012-06-02, 00:37:04,VALID,1002.78,VALID,0,VALID,94.0794,VALID,0,VALID,24.3441,VALID,6,VALID,0,
2012-06-02, 00:38:04,VALID,1002.81,VALID,0,VALID,94.0336,VALID,0,VALID,24.3246,VALID,6,VALID,0,
2012-06-02, 00:39:04,VALID,1002.77,VALID,0,VALID,94.1556,VALID,0.0815089,VALID,24.3441,VALID,6,VALID,0,
2012-06-02, 00:40:04,VALID,1002.75,VALID,0,VALID,94.2319,VALID,0.0815089,VALID,24.3441,VALID,6,VALID,0,
2012-06-02, 00:41:04,VALID,1002.77,VALID,0,VALID,94.2396,VALID,0,VALID,24.3849,VALID,6,VALID,0,
2012-06-02, 00:42:04,VALID,1002.76,VALID,0,VALID,94.2167,VALID,0,VALID,24.3654,VALID,6,VALID,0,
2012-06-02, 00:43:04,VALID,1002.74,VALID,0,VALID,94.2167,VALID,0,VALID,24.3441,VALID,6,VALID,0,
2012-06-02, 00:44:04,VALID,1002.7,VALID,0,VALID,94.1709,VALID,0.0815089,VALID,24.3246,VALID,6,VALID,0,
2012-06-02, 00:45:04,VALID,1002.66,VALID,0,VALID,94.1709,VALID,0.0815089,VALID,24.3052,VALID,6,VALID,0,
2012-06-02, 00:46:04,VALID,1002.66,VALID,0,VALID,94.1633,VALID,0,VALID,24.2857,VALID,6,VALID,0,
2012-06-02, 00:47:04,VALID,1002.66,VALID,0,VALID,94.209,VALID,0,VALID,24.3265,VALID,6,VALID,0,
2012-06-02, 00:48:04,VALID,1002.66,VALID,0,VALID,94.2014,VALID,0.0815089,VALID,24.3052,VALID,6,VALID,0,
2012-06-02, 00:49:04,VALID,1002.64,VALID,0,VALID,94.2243,VALID,0.0815089,VALID,24.3052,VALID,6,VALID,0,
2012-06-02, 00:50:04,VALID,1002.64,VALID,0,VALID,94.2548,VALID,0,VALID,24.2857,VALID,6,VALID,0,
2012-06-02, 00:51:04,VALID,1002.65,VALID,0,VALID,94.2624,VALID,0,VALID,24.3265,VALID,6,VALID,0,
2012-06-02, 00:52:04,VALID,1002.62,VALID,0,VALID,94.2548,VALID,0,VALID,24.3052,VALID,6,VALID,0,
2012-06-02, 00:53:04,VALID,1002.62,VALID,0,VALID,94.2243,VALID,0.0815089,VALID,24.3052,VALID,6,VALID,0,
2012-06-02, 00:54:04,VALID,1002.63,VALID,0,VALID,94.209,VALID,0.0815089,VALID,24.2644,VALID,6,VALID,0,
2012-06-02, 00:55:04,VALID,1002.66,VALID,0,VALID,94.2014,VALID,0.0815089,VALID,24.307,VALID,7,VALID,0,
2012-06-02, 00:56:04,VALID,1002.66,VALID,0,VALID,94.2777,VALID,0.0815089,VALID,24.3052,VALID,7,VALID,0,
2012-06-02, 00:57:04,VALID,1002.65,VALID,0,VALID,94.2701,VALID,0,VALID,24.2875,VALID,7,VALID,0,
2012-06-02, 00:58:04,VALID,1002.66,VALID,0,VALID,94.293,VALID,0,VALID,24.2857,VALID,7,VALID,0,
2012-06-02, 00:59:04,VALID,1002.68,VALID,0,VALID,94.354,VALID,0.0815089,VALID,24.2857,VALID,7,VALID,0,
2012-06-02, 01:00:04,VALID,1002.67,VALID,0,VALID,94.3921,VALID,0,VALID,24.3246,VALID,7,VALID,0,
2012-06-02, 01:01:04,VALID,1002.67,VALID,0,VALID,94.415,VALID,0.0815089,VALID,24.3033,VALID,7,VALID,0,
2012-06-02, 01:02:04,VALID,1002.62,VALID,0,VALID,94.4532,VALID,0.0815089,VALID,24.383,VALID,7,VALID,0,
2012-06-02, 01:03:04,VALID,1002.62,VALID,0,VALID,94.5066,VALID,0,VALID,24.383,VALID,7,VALID,0,
2012-06-02, 01:04:04,VALID,1002.6,VALID,0,VALID,94.4989,VALID,0.0815089,VALID,24.422,VALID,7,VALID,0,
2012-06-02, 01:05:04,VALID,1002.59,VALID,0,VALID,94.4837,VALID,0,VALID,24.4433,VALID,7,VALID,0,
2012-06-02, 01:06:04,VALID,1002.58,VALID,0,VALID,94.4532,VALID,0.0815089,VALID,24.422,VALID,7,VALID,0,
2012-06-02, 01:07:04,VALID,1002.53,VALID,0,VALID,94.3921,VALID,0.0815089,VALID,24.4025,VALID,7,VALID,0,
2012-06-02, 01:08:04,VALID,1002.5,VALID,0,VALID,94.3845,VALID,0.0815089,VALID,24.4025,VALID,7,VALID,0,
2012-06-02, 01:09:04,VALID,1002.49,VALID,0,VALID,94.3921,VALID,0,VALID,24.4238,VALID,7,VALID,0,
2012-06-02, 01:10:04,VALID,1002.48,VALID,0,VALID,94.3921,VALID,0,VALID,24.4238,VALID,7,VALID,0,
2012-06-02, 01:11:04,VALID,1002.46,VALID,0,VALID,94.3998,VALID,0,VALID,24.4025,VALID,7,VALID,0,
2012-06-02, 01:12:04,VALID,1002.43,VALID,0,VALID,94.3921,VALID,0,VALID,24.422,VALID,7,VALID,0,
2012-06-02, 01:13:04,VALID,1002.42,VALID,0,VALID,94.415,VALID,0,VALID,24.4433,VALID,7,VALID,0,
2012-06-02, 01:14:04,VALID,1002.44,VALID,0,VALID,94.3769,VALID,0,VALID,24.4433,VALID,7,VALID,0,
2012-06-02, 01:15:04,VALID,1002.43,VALID,0,VALID,94.4379,VALID,0,VALID,24.4822,VALID,7,VALID,0,
2012-06-02, 01:16:04,VALID,1002.44,VALID,0,VALID,94.4684,VALID,0,VALID,24.5017,VALID,7,VALID,0,
2012-06-02, 01:17:04,VALID,1002.4,VALID,0,VALID,94.4532,VALID,0,VALID,24.5212,VALID,7,VALID,0,
2012-06-02, 01:18:04,VALID,1002.4,VALID,0,VALID,94.4532,VALID,0,VALID,24.5406,VALID,7,VALID,0,
2012-06-02, 01:19:04,VALID,1002.4,VALID,0,VALID,94.4303,VALID,0,VALID,24.5406,VALID,7,VALID,0,
2012-06-02, 01:20:04,VALID,1002.41,VALID,0,VALID,94.415,VALID,0,VALID,24.562,VALID,2,VALID,0.186719,
2012-06-02, 01:21:04,VALID,1002.39,VALID,0,VALID,94.4227,VALID,0,VALID,24.5601,VALID,350,VALID,0.884375,
2012-06-02, 01:22:04,VALID,1002.38,VALID,0,VALID,94.4455,VALID,0,VALID,24.5601,VALID,354,VALID,0.976953,
2012-06-02, 01:23:04,VALID,1002.39,VALID,0,VALID,94.4227,VALID,0,VALID,24.599,VALID,349,VALID,0.790234,
2012-06-02, 01:24:04,VALID,1002.37,VALID,0,VALID,94.415,VALID,0,VALID,24.5972,VALID,351,VALID,0.151172,
2012-06-02, 01:25:04,VALID,1002.36,VALID,0,VALID,94.3845,VALID,0,VALID,24.6166,VALID,350,VALID,0.454297,
2012-06-02, 01:26:04,VALID,1002.35,VALID,0,VALID,94.3387,VALID,0,VALID,24.6361,VALID,350,VALID,0.298828,
2012-06-02, 01:27:04,VALID,1002.35,VALID,0,VALID,94.3082,VALID,0,VALID,24.6361,VALID,350,VALID,0.592969,
2012-06-02, 01:28:04,VALID,1002.35,VALID,0,VALID,94.293,VALID,0.0815089,VALID,24.6769,VALID,350,VALID,0.279297,
2012-06-02, 01:29:04,VALID,1002.35,VALID,0,VALID,94.2396,VALID,0,VALID,24.6769,VALID,350,VALID,0.267969,
2012-06-02, 01:30:04,VALID,1002.34,VALID,0,VALID,94.1938,VALID,0.0815089,VALID,24.6556,VALID,350,VALID,0,
2012-06-02, 01:31:04,VALID,1002.31,VALID,0,VALID,94.0946,VALID,0,VALID,24.6166,VALID,350,VALID,0,
2012-06-02, 01:32:04,VALID,1002.31,VALID,0,VALID,94.0946,VALID,0,VALID,24.6166,VALID,350,VALID,0.583984,
2012-06-02, 01:33:04,VALID,1002.28,VALID,0,VALID,94.087,VALID,0,VALID,24.6574,VALID,1,VALID,0.592969,
2012-06-02, 01:34:04,VALID,1002.25,VALID,0,VALID,94.1022,VALID,0,VALID,24.6361,VALID,6,VALID,0.0839844,
2012-06-02, 01:35:04,VALID,1002.27,VALID,0,VALID,94.1022,VALID,0,VALID,24.6361,VALID,6,VALID,0.254297,
2012-06-02, 01:36:04,VALID,1002.27,VALID,0,VALID,94.1099,VALID,0,VALID,24.6361,VALID,6,VALID,0.359375,
2012-06-02, 01:37:04,VALID,1002.25,VALID,0,VALID,94.0717,VALID,0,VALID,24.6574,VALID,6,VALID,0.529297,
2012-06-02, 01:38:04,VALID,1002.24,VALID,0,VALID,94.0336,VALID,0,VALID,24.6166,VALID,6,VALID,0.462109,
2012-06-02, 01:39:04,VALID,1002.24,VALID,0,VALID,94.0641,VALID,0,VALID,24.6166,VALID,6,VALID,0.249609,
2012-06-02, 01:40:04,VALID,1002.21,VALID,0,VALID,94.0946,VALID,0,VALID,24.6361,VALID,6,VALID,0.0242187,
2012-06-02, 01:41:04,VALID,1002.24,VALID,0,VALID,94.0641,VALID,0,VALID,24.6361,VALID,6,VALID,0,
2012-06-02, 01:42:04,VALID,1002.24,VALID,0,VALID,94.0412,VALID,0,VALID,24.638,VALID,6,VALID,0.365234,
2012-06-02, 01:43:04,VALID,1002.24,VALID,0,VALID,94.0031,VALID,0,VALID,24.5972,VALID,6,VALID,0.480078,
2012-06-02, 01:44:04,VALID,1002.23,VALID,0,VALID,94.0107,VALID,0,VALID,24.5777,VALID,6,VALID,0.638281,
2012-06-02, 01:45:04,VALID,1002.25,VALID,0,VALID,94.0031,VALID,0,VALID,24.599,VALID,5,VALID,0.587891,
2012-06-02, 01:46:04,VALID,1002.18,VALID,0,VALID,93.9878,VALID,0,VALID,24.5777,VALID,5,VALID,0.453906,
2012-06-02, 01:47:04,VALID,1002.19,VALID,0,VALID,94.0107,VALID,0,VALID,24.5777,VALID,5,VALID,0.377734,
2012-06-02, 01:48:04,VALID,1002.2,VALID,0,VALID,94.0565,VALID,0,VALID,24.5777,VALID,5,VALID,0.263672,
2012-06-02, 01:49:04,VALID,1002.18,VALID,0,VALID,94.0641,VALID,0,VALID,24.5582,VALID,5,VALID,0.423047,
2012-06-02, 01:50:04,VALID,1002.17,VALID,0,VALID,94.087,VALID,0,VALID,24.5601,VALID,5,VALID,0.516016,
2012-06-02, 01:51:04,VALID,1002.18,VALID,0,VALID,94.087,VALID,0,VALID,24.5601,VALID,5,VALID,0.421875,
2012-06-02, 01:52:04,VALID,1002.18,VALID,0,VALID,94.0946,VALID,0,VALID,24.5601,VALID,5,VALID,0,
2012-06-02, 01:53:04,VALID,1002.18,VALID,0,VALID,94.087,VALID,0,VALID,24.5193,VALID,5,VALID,0,
2012-06-02, 01:54:04,VALID,1002.17,VALID,0,VALID,94.0946,VALID,0,VALID,24.5193,VALID,5,VALID,0,
2012-06-02, 01:55:04,VALID,1002.18,VALID,0,VALID,94.1022,VALID,0,VALID,24.5212,VALID,5,VALID,0,
2012-06-02, 01:56:04,VALID,1002.21,VALID,0,VALID,94.1938,VALID,0,VALID,24.5193,VALID,5,VALID,0,
2012-06-02, 01:57:04,VALID,1002.2,VALID,0,VALID,94.2472,VALID,0.0815089,VALID,24.5193,VALID,5,VALID,0,
2012-06-02, 01:58:04,VALID,1002.2,VALID,0,VALID,94.1938,VALID,0,VALID,24.5193,VALID,5,VALID,0,
2012-06-02, 01:59:04,VALID,1002.23,VALID,0,VALID,94.2319,VALID,0,VALID,24.5193,VALID,5,VALID,0,
2012-06-02, 02:00:04,VALID,1002.24,VALID,0,VALID,94.2167,VALID,0,VALID,24.5193,VALID,5,VALID,0,
2012-06-02, 02:01:04,VALID,1002.26,VALID,0,VALID,94.209,VALID,0,VALID,24.4998,VALID,5,VALID,0,
2012-06-02, 02:02:04,VALID,1002.28,VALID,0,VALID,94.1938,VALID,0,VALID,24.4998,VALID,4,VALID,0,
2012-06-02, 02:03:04,VALID,1002.3,VALID,0,VALID,94.1633,VALID,0,VALID,24.4804,VALID,1,VALID,0,
2012-06-02, 02:04:04,VALID,1002.32,VALID,0,VALID,94.1251,VALID,0,VALID,24.4609,VALID,1,VALID,0,
2012-06-02, 02:05:04,VALID,1002.29,VALID,0,VALID,94.148,VALID,0,VALID,24.4201,VALID,1,VALID,0,
2012-06-02, 02:06:04,VALID,1002.33,VALID,0,VALID,94.1404,VALID,0,VALID,24.4006,VALID,1,VALID,0,
2012-06-02, 02:07:04,VALID,1002.31,VALID,0,VALID,94.1633,VALID,0,VALID,24.4025,VALID,360,VALID,0,
2012-06-02, 02:08:04,VALID,1002.32,VALID,0,VALID,94.1785,VALID,0,VALID,24.4025,VALID,360,VALID,0,
2012-06-02, 02:09:04,VALID,1002.31,VALID,0,VALID,94.1862,VALID,0.0815089,VALID,24.4025,VALID,360,VALID,0,
2012-06-02, 02:10:04,VALID,1002.3,VALID,0,VALID,94.2243,VALID,0,VALID,24.422,VALID,360,VALID,0,
2012-06-02, 02:11:04,VALID,1002.29,VALID,0,VALID,94.2472,VALID,0,VALID,24.4025,VALID,360,VALID,0,
2012-06-02, 02:12:04,VALID,1002.27,VALID,0,VALID,94.2472,VALID,0,VALID,24.4025,VALID,360,VALID,0,
2012-06-02, 02:13:04,VALID,1002.28,VALID,0,VALID,94.2777,VALID,0.0815089,VALID,24.4025,VALID,360,VALID,0,
2012-06-02, 02:14:04,VALID,1002.26,VALID,0,VALID,94.2701,VALID,0,VALID,24.4025,VALID,360,VALID,0,
2012-06-02, 02:15:04,VALID,1002.3,VALID,0,VALID,94.2548,VALID,0,VALID,24.383,VALID,360,VALID,0,
2012-06-02, 02:16:04,VALID,1002.29,VALID,0,VALID,94.2548,VALID,0,VALID,24.3849,VALID,360,VALID,0,
2012-06-02, 02:17:04,VALID,1002.31,VALID,0,VALID,94.2777,VALID,0.0815089,VALID,24.3441,VALID,359,VALID,0,
2012-06-02, 02:18:04,VALID,1002.31,VALID,0,VALID,94.2853,VALID,0.0815089,VALID,24.3441,VALID,359,VALID,0,
2012-06-02, 02:19:04,VALID,1002.32,VALID,0,VALID,94.293,VALID,0,VALID,24.3441,VALID,359,VALID,0,
2012-06-02, 02:20:04,VALID,1002.3,VALID,0,VALID,94.3311,VALID,0,VALID,24.3246,VALID,359,VALID,0,
2012-06-02, 02:21:04,VALID,1002.3,VALID,0,VALID,94.354,VALID,0,VALID,24.3246,VALID,359,VALID,0,
2012-06-02, 02:22:04,VALID,1002.29,VALID,0,VALID,94.3845,VALID,0.0815089,VALID,24.3441,VALID,359,VALID,0,
2012-06-02, 02:23:04,VALID,1002.32,VALID,0,VALID,94.3921,VALID,0,VALID,24.3441,VALID,359,VALID,0,
2012-06-02, 02:24:04,VALID,1002.31,VALID,0,VALID,94.3998,VALID,0,VALID,24.3228,VALID,359,VALID,0,
2012-06-02, 02:25:04,VALID,1002.34,VALID,0,VALID,94.3998,VALID,0,VALID,24.3441,VALID,359,VALID,0,
2012-06-02, 02:26:04,VALID,1002.36,VALID,0,VALID,94.3998,VALID,0,VALID,24.3228,VALID,359,VALID,0,
2012-06-02, 02:27:04,VALID,1002.36,VALID,0,VALID,94.4227,VALID,0,VALID,24.3033,VALID,359,VALID,0,
2012-06-02, 02:28:04,VALID,1002.34,VALID,0,VALID,94.4379,VALID,0,VALID,24.3459,VALID,359,VALID,0,
2012-06-02, 02:29:04,VALID,1002.32,VALID,0,VALID,94.4303,VALID,0,VALID,24.3459,VALID,359,VALID,0,
2012-06-02, 02:30:04,VALID,1002.32,VALID,0,VALID,94.4074,VALID,0,VALID,24.3246,VALID,359,VALID,0,
2012-06-02, 02:31:04,VALID,1002.28,VALID,0,VALID,94.4532,VALID,0,VALID,24.3246,VALID,359,VALID,0,
2012-06-02, 02:32:04,VALID,1002.25,VALID,0,VALID,94.4227,VALID,0,VALID,24.3265,VALID,359,VALID,0,
2012-06-02, 02:33:04,VALID,1002.25,VALID,0,VALID,94.3998,VALID,0,VALID,24.2857,VALID,359,VALID,0,
2012-06-02, 02:34:04,VALID,1002.2,VALID,0,VALID,94.3692,VALID,0,VALID,24.2449,VALID,359,VALID,0,
2012-06-02, 02:35:04,VALID,1002.16,VALID,0,VALID,94.3769,VALID,0,VALID,24.2662,VALID,359,VALID,0,
2012-06-02, 02:36:04,VALID,1002.16,VALID,0,VALID,94.3998,VALID,0,VALID,24.2662,VALID,359,VALID,0,
2012-06-02, 02:37:04,VALID,1002.13,VALID,0,VALID,94.4074,VALID,0.0815089,VALID,24.2468,VALID,359,VALID,0,
2012-06-02, 02:38:04,VALID,1002.1,VALID,0,VALID,94.4455,VALID,0.0815089,VALID,24.2468,VALID,359,VALID,0,
2012-06-02, 02:39:04,VALID,1002.1,VALID,0,VALID,94.4608,VALID,0,VALID,24.2681,VALID,359,VALID,0,
2012-06-02, 02:40:04,VALID,1002.07,VALID,0,VALID,94.4608,VALID,0,VALID,24.2468,VALID,359,VALID,0,
2012-06-02, 02:41:04,VALID,1002.03,VALID,0,VALID,94.4303,VALID,0,VALID,24.2486,VALID,359,VALID,0,
2012-06-02, 02:42:04,VALID,1002.01,VALID,0,VALID,94.3998,VALID,0,VALID,24.2078,VALID,359,VALID,0,
2012-06-02, 02:43:04,VALID,1001.98,VALID,0,VALID,94.4074,VALID,0,VALID,24.1689,VALID,359,VALID,0,
2012-06-02, 02:44:04,VALID,1001.99,VALID,0,VALID,94.3845,VALID,0,VALID,24.1707,VALID,359,VALID,0,
2012-06-02, 02:45:04,VALID,1001.93,VALID,0,VALID,94.3616,VALID,0,VALID,24.13,VALID,359,VALID,0,
2012-06-02, 02:46:04,VALID,1001.91,VALID,0,VALID,94.3921,VALID,0,VALID,24.1494,VALID,359,VALID,0,
2012-06-02, 02:47:04,VALID,1001.91,VALID,0,VALID,94.4379,VALID,0,VALID,24.1494,VALID,359,VALID,0,
2012-06-02, 02:48:04,VALID,1001.95,VALID,0,VALID,94.4608,VALID,0,VALID,24.1494,VALID,359,VALID,0,
2012-06-02, 02:49:04,VALID,1001.96,VALID,0,VALID,94.4761,VALID,0.0815089,VALID,24.1494,VALID,359,VALID,0,
2012-06-02, 02:50:04,VALID,1001.94,VALID,0,VALID,94.4684,VALID,0,VALID,24.13,VALID,359,VALID,0,
2012-06-02, 02:51:04,VALID,1001.97,VALID,0,VALID,94.4608,VALID,0,VALID,24.1318,VALID,359,VALID,0,
2012-06-02, 02:52:04,VALID,1001.98,VALID,0,VALID,94.4761,VALID,0,VALID,24.1105,VALID,359,VALID,0,
2012-06-02, 02:53:04,VALID,1001.97,VALID,0,VALID,94.5142,VALID,0,VALID,24.1513,VALID,359,VALID,0,
2012-06-02, 02:54:04,VALID,1002,VALID,0,VALID,94.4837,VALID,0,VALID,24.1318,VALID,359,VALID,0,
2012-06-02, 02:55:04,VALID,1001.99,VALID,0,VALID,94.4837,VALID,0,VALID,24.1123,VALID,359,VALID,0,
2012-06-02, 02:56:04,VALID,1001.98,VALID,0,VALID,94.5295,VALID,0,VALID,24.1105,VALID,359,VALID,0,
2012-06-02, 02:57:04,VALID,1001.99,VALID,0,VALID,94.5295,VALID,0,VALID,24.1318,VALID,359,VALID,0,
2012-06-02, 02:58:04,VALID,1001.95,VALID,0,VALID,94.5676,VALID,0,VALID,24.1318,VALID,359,VALID,0,
2012-06-02, 02:59:04,VALID,1001.95,VALID,0,VALID,94.6134,VALID,0,VALID,24.1902,VALID,359,VALID,0,
2012-06-02, 03:00:04,VALID,1001.93,VALID,0,VALID,94.621,VALID,0,VALID,24.1902,VALID,359,VALID,0,
2012-06-02, 03:01:04,VALID,1001.92,VALID,0,VALID,94.6363,VALID,0,VALID,24.1902,VALID,359,VALID,0,
2012-06-02, 03:02:04,VALID,1001.94,VALID,0,VALID,94.6363,VALID,0,VALID,24.1884,VALID,359,VALID,0,
2012-06-02, 03:03:04,VALID,1001.92,VALID,0,VALID,94.6134,VALID,0,VALID,24.2097,VALID,359,VALID,0,
2012-06-02, 03:04:04,VALID,1001.91,VALID,0,VALID,94.5676,VALID,0,VALID,24.1689,VALID,359,VALID,0,
2012-06-02, 03:05:04,VALID,1001.88,VALID,0,VALID,94.56,VALID,0.0815089,VALID,24.1707,VALID,359,VALID,0,
2012-06-02, 03:06:04,VALID,1001.85,VALID,0,VALID,94.5295,VALID,0,VALID,24.1513,VALID,359,VALID,0,
2012-06-02, 03:07:04,VALID,1001.88,VALID,0,VALID,94.5447,VALID,0,VALID,24.13,VALID,359,VALID,0,
2012-06-02, 03:08:04,VALID,1001.83,VALID,0,VALID,94.6286,VALID,0,VALID,24.1902,VALID,359,VALID,0,
2012-06-02, 03:09:04,VALID,1001.84,VALID,0,VALID,94.6363,VALID,0,VALID,24.2078,VALID,359,VALID,0,
2012-06-02, 03:10:04,VALID,1001.82,VALID,0,VALID,94.6897,VALID,0.0815089,VALID,24.2468,VALID,359,VALID,0,
2012-06-02, 03:11:04,VALID,1001.82,VALID,0,VALID,94.6897,VALID,0,VALID,24.2681,VALID,359,VALID,0,
2012-06-02, 03:12:04,VALID,1001.81,VALID,0,VALID,94.7049,VALID,0,VALID,24.2875,VALID,359,VALID,0,
2012-06-02, 03:13:04,VALID,1001.8,VALID,0,VALID,94.6668,VALID,0,VALID,24.2681,VALID,359,VALID,0,
2012-06-02, 03:14:04,VALID,1001.8,VALID,0,VALID,94.6363,VALID,0,VALID,24.2468,VALID,359,VALID,0,
2012-06-02, 03:15:04,VALID,1001.81,VALID,0,VALID,94.6134,VALID,0,VALID,24.2273,VALID,359,VALID,0,
2012-06-02, 03:16:04,VALID,1001.81,VALID,0,VALID,94.5523,VALID,0,VALID,24.1902,VALID,359,VALID,0,
2012-06-02, 03:17:04,VALID,1001.79,VALID,0,VALID,94.4989,VALID,0,VALID,24.1513,VALID,359,VALID,0,
2012-06-02, 03:18:04,VALID,1001.79,VALID,0,VALID,94.5447,VALID,0,VALID,24.13,VALID,359,VALID,0,
2012-06-02, 03:19:04,VALID,1001.79,VALID,0,VALID,94.5295,VALID,0,VALID,24.1513,VALID,359,VALID,0,
2012-06-02, 03:20:04,VALID,1001.79,VALID,0,VALID,94.5066,VALID,0,VALID,24.1513,VALID,359,VALID,0,
2012-06-02, 03:21:04,VALID,1001.82,VALID,0,VALID,94.5066,VALID,0,VALID,24.1123,VALID,359,VALID,0,
2012-06-02, 03:22:04,VALID,1001.81,VALID,0,VALID,94.5066,VALID,0,VALID,24.1123,VALID,359,VALID,0,
2012-06-02, 03:23:04,VALID,1001.81,VALID,0,VALID,94.5218,VALID,0,VALID,24.1123,VALID,359,VALID,0,
2012-06-02, 03:24:04,VALID,1001.8,VALID,0,VALID,94.4913,VALID,0,VALID,24.0716,VALID,359,VALID,0,
2012-06-02, 03:25:04,VALID,1001.76,VALID,0,VALID,94.4608,VALID,0,VALID,24.0326,VALID,359,VALID,0,
2012-06-02, 03:26:04,VALID,1001.77,VALID,0,VALID,94.4379,VALID,0,VALID,24.0345,VALID,359,VALID,0,
2012-06-02, 03:27:04,VALID,1001.77,VALID,0,VALID,94.3921,VALID,0,VALID,23.9955,VALID,359,VALID,0,
2012-06-02, 03:28:04,VALID,1001.79,VALID,0,VALID,94.3998,VALID,0,VALID,23.9761,VALID,359,VALID,0,
2012-06-02, 03:29:04,VALID,1001.78,VALID,0,VALID,94.3998,VALID,0.0815089,VALID,23.9548,VALID,359,VALID,0,
2012-06-02, 03:30:04,VALID,1001.78,VALID,0,VALID,94.3845,VALID,0,VALID,23.9353,VALID,359,VALID,0,
2012-06-02, 03:31:04,VALID,1001.8,VALID,0,VALID,94.4303,VALID,0,VALID,23.9353,VALID,359,VALID,0,
2012-06-02, 03:32:04,VALID,1001.8,VALID,0,VALID,94.4989,VALID,0,VALID,23.9548,VALID,359,VALID,0,
2012-06-02, 03:33:04,VALID,1001.79,VALID,0,VALID,94.5676,VALID,0,VALID,23.9937,VALID,359,VALID,0,
2012-06-02, 03:34:04,VALID,1001.82,VALID,0,VALID,94.5371,VALID,0,VALID,23.9742,VALID,359,VALID,0,
2012-06-02, 03:35:04,VALID,1001.8,VALID,0,VALID,94.4913,VALID,0.0815089,VALID,23.9353,VALID,359,VALID,0,
2012-06-02, 03:36:04,VALID,1001.79,VALID,0,VALID,94.5295,VALID,0,VALID,23.9548,VALID,359,VALID,0,
2012-06-02, 03:37:04,VALID,1001.82,VALID,0,VALID,94.56,VALID,0.0815089,VALID,23.9548,VALID,359,VALID,0,
2012-06-02, 03:38:04,VALID,1001.8,VALID,0,VALID,94.5752,VALID,0,VALID,23.9742,VALID,359,VALID,0,
2012-06-02, 03:39:04,VALID,1001.82,VALID,0,VALID,94.5523,VALID,0.0815089,VALID,23.9742,VALID,359,VALID,0,
2012-06-02, 03:40:04,VALID,1001.85,VALID,0,VALID,94.5295,VALID,0,VALID,23.9548,VALID,359,VALID,0,
2012-06-02, 03:41:04,VALID,1001.83,VALID,0,VALID,94.4989,VALID,0,VALID,23.9353,VALID,359,VALID,0,
2012-06-02, 03:42:04,VALID,1001.85,VALID,0,VALID,94.56,VALID,0.0815089,VALID,23.9761,VALID,359,VALID,0,
2012-06-02, 03:43:04,VALID,1001.87,VALID,0,VALID,94.6286,VALID,0,VALID,23.9937,VALID,359,VALID,0,
2012-06-02, 03:44:04,VALID,1001.87,VALID,0,VALID,94.6515,VALID,0.0815089,VALID,24.0132,VALID,359,VALID,0,
2012-06-02, 03:45:04,VALID,1001.9,VALID,0,VALID,94.6439,VALID,0,VALID,24.0345,VALID,359,VALID,0,
2012-06-02, 03:46:04,VALID,1001.89,VALID,0,VALID,94.5829,VALID,0.0815089,VALID,24.0132,VALID,359,VALID,0,
2012-06-02, 03:47:04,VALID,1001.91,VALID,0,VALID,94.5752,VALID,0,VALID,23.9742,VALID,359,VALID,0,
2012-06-02, 03:48:04,VALID,1001.89,VALID,0,VALID,94.6134,VALID,0.0815089,VALID,24.0132,VALID,359,VALID,0,
2012-06-02, 03:49:04,VALID,1001.89,VALID,0,VALID,94.6515,VALID,0,VALID,24.0539,VALID,359,VALID,0,
2012-06-02, 03:50:04,VALID,1001.88,VALID,0,VALID,94.6363,VALID,0.0815089,VALID,24.0326,VALID,359,VALID,0,
2012-06-02, 03:51:04,VALID,1001.89,VALID,0,VALID,94.6057,VALID,0.0815089,VALID,24.0521,VALID,359,VALID,0,
2012-06-02, 03:52:04,VALID,1001.86,VALID,0,VALID,94.5752,VALID,0,VALID,24.0345,VALID,359,VALID,0,
2012-06-02, 03:53:04,VALID,1001.88,VALID,0,VALID,94.5829,VALID,0.0815089,VALID,23.9937,VALID,359,VALID,0,
2012-06-02, 03:54:04,VALID,1001.87,VALID,0,VALID,94.6363,VALID,0,VALID,24.0132,VALID,359,VALID,0,
2012-06-02, 03:55:04,VALID,1001.89,VALID,0,VALID,94.6668,VALID,0,VALID,24.0734,VALID,359,VALID,0,
2012-06-02, 03:56:04,VALID,1001.88,VALID,0,VALID,94.6363,VALID,0,VALID,24.0539,VALID,359,VALID,0,